Weather past 2 weeks in Willemstad, Curaçao

Now
81 °F

Passing clouds.


Feels Like: 85 °F
Forecast: 81 / 87 °F
Wind: 14 mph from Southeast

Location: Hato Airport - Curacao

Current Time: Jul 22, 2014 at 5:27:09 AM

Latest Report: Jul 22, 2014 at 3:00 AM


Visibility: N/A

Pressure: 29.95 "Hg

Humidity: 79%

Dew point: 73 °F

Location of WillemstadLocation

Historic Weather in Willemstad — Graph

°F

Willemstad temperature yesterday

Maximum temperature yesterday: 88 °F (at 1:00 PM)
Minimum temperature yesterday: 79 °F (at 1:00 AM)
Average temperature yesterday: 83 °F

Past Weeks' High & Low Weather Summary

 TemperatureHumidityPressure
High91 °F (Jul 18, 12:00 PM)94% (Jul 15, 6:00 AM)31.24 "Hg (Jul 15, 6:00 AM)
Low77 °F (Jul 15, 6:00 AM)52% (Jul 18, 12:00 PM)29.89 "Hg (Jul 10, 4:00 PM)
Average83 °F77%29.98 "Hg
* Reported Jul 7 3:00 AM — Jul 22 3:00 AM, Willemstad, Weather by CustomWeather, © 2014

Note: Actual official high and low records may vary slightly from our data, if they occured in-between our weather recording intervals... More about our weather records

Advertising

Willemstad weather history for previous 24 hours

 ConditionsComfort  
Time TempWeatherWind HumidityBarometerVisibility
3:00 AM
Jul 22
81 °FPassing clouds.14 mph79%29.95 "HgN/A
2:00 AM81 °FClear.14 mph84%29.95 "Hg10 mi
1:00 AM81 °FClear.13 mph84%29.98 "Hg10 mi
12:00 AM81 °FClear.14 mph84%29.98 "Hg10 mi
11:00 PM
Jul 21
81 °FClear.15 mph84%29.98 "Hg10 mi
10:00 PM81 °FClear.15 mph84%29.98 "Hg10 mi
9:00 PM81 °FClear.17 mph84%29.95 "Hg10 mi
8:00 PM82 °FClear.14 mph79%29.95 "Hg10 mi
7:00 PM82 °FSunny.13 mph79%29.92 "Hg10 mi
6:00 PM84 °FPassing clouds.14 mph70%29.92 "HgN/A
5:00 PM84 °FScattered clouds.16 mph74%29.92 "HgN/A
4:00 PM86 °FScattered clouds.16 mph70%29.92 "HgN/A
3:00 PM86 °FScattered clouds.21 mph70%29.95 "HgN/A
2:00 PM88 °FScattered clouds.23 mph62%29.98 "HgN/A
1:00 PM88 °FPartly sunny.22 mph62%29.98 "HgN/A
12:00 PM86 °FPartly sunny.25 mph66%29.98 "HgN/A
11:00 AM86 °FPartly sunny.26 mph70%30.01 "HgN/A
10:00 AM84 °FPartly sunny.23 mph70%30.01 "HgN/A
9:00 AM84 °FPartly sunny.23 mph74%30.01 "HgN/A
8:00 AM84 °FScattered clouds.21 mph74%29.98 "HgN/A
7:00 AM81 °FScattered clouds.18 mph84%29.95 "HgN/A
6:00 AM81 °FSprinkles. Passing clouds.14 mph84%29.95 "HgN/A
Weather by CustomWeather, © 2014

See weather overviewHow to use our weather pages